Regional Weather Roundup
Issued by NWS

Home | Current Version | Previous Version | Graphics & Text | Print | Product List | Glossary On
Versions: 1 2 3 4 5 6 7 8 9 10 11 12 13 14 15 16 17 18 19 20 21 22 23 24 25 26 27
000
ASUS45 KSLC 271310
RWRUT

UTAH REGIONAL WEATHER ROUNDUP
NATIONAL WEATHER SERVICE SALT LAKE CITY UT
700 AM MDT WED JUL 27 2016

UTZ001>011-023>025-271400-

NORTHERN UTAH

CITY           SKY/WX    TMP DP  RH WIND       PRES   REMARKS
BRIGHAM CITY     N/A     62  36  38 CALM      30.12R
HILL AFB       CLEAR     67  30  25 E17       30.14R
LOGAN          CLEAR     53  44  71 CALM      30.14R
OGDEN          CLEAR     67  31  26 S12       30.11R
PROVO AIRPORT  CLEAR     59  43  55 VRB3      30.14R
SALT LAKE CITY CLEAR     72  40  31 SE7       30.10R
VERNAL         CLEAR     57  41  55 W5        30.20R
WENDOVER       PTCLDY    72  36  26 CALM      30.12R
HEBER CITY     CLEAR     46  39  76 CALM      30.25R

$$

UTZ012>022-026-027-271400-

SOUTHERN/CENTRAL UTAH

CITY           SKY/WX    TMP DP  RH WIND       PRES   REMARKS
BLANDING       CLEAR     62  50  66 N8        30.32R
BRYCE CANYON   PTCLDY    48  39  71 W6        30.39R
CEDAR CITY     CLEAR     63  42  46 VRB5      30.19R
DELTA          CLEAR     64  28  25 N5        30.13R
MILFORD        CLEAR     61  39  44 NW6       30.15R
MOAB/CYNLANDS  CLEAR     71  40  32 SE5       30.11R
PRICE          CLEAR     64  35  34 N7        30.22R
ST GEORGE      SUNNY     81  43  26 SE7       30.00R

$$

REGIONAL REPORTS     COLORADO/ARIZONA

CITY           SKY/WX    TMP DP  RH WIND       PRES   REMARKS
CRAIG, CO      CLOUDY    48  41  76 CALM      30.29R
GRAND JUNCTION CLEAR     67  42  40 SE10      30.18R
RIFLE          CLOUDY    56  40  55 CALM      30.27R
MONTROSE       CLEAR     58  43  57 S7        30.28R
CORTEZ         CLEAR     54  44  69 MISG      30.27R
PAGE, AZ       CLEAR     77  42  28 W6        30.10R
GRAND CANYON   CLEAR     51  43  74 CALM      30.31R
KINGMAN        CLEAR     79  50  36 SE6       30.02R
FLAGSTAFF      CLEAR     52  50  93 CALM      30.34R

$$

REGIONAL REPORTS    NEVADA/IDAHO/WYOMING

CITY           SKY/WX    TMP DP  RH WIND       PRES   REMARKS
LAS VEGAS, NV  PTCLDY    91  44  19 S3        29.84R
ELY            PTCLDY    47  19  33 S7        30.28R
ELKO           PTCLDY    56  28  34 E5        30.20R
POCATELLO, ID  CLEAR     52  40  63 CALM      30.16R
BURLEY         CLEAR     55  48  77 NE3       30.12R
EVANSTON, WY   CLOUDY    60  23  24 S8        30.32R
ROCK SPRINGS   CLOUDY    61  35  37 CALM      30.29R
KEMMERER         N/A     52  30  43 N10       30.33R

$$




USA.gov is the U.S. government's official web portal to all federal, state and local government web resources and services.